Regional Weather Roundup
Issued by NWS

Home | Current Version | Previous Version | Graphics & Text | Print | Product List | Glossary On
Versions: 1 2 3 4 5 6 7 8 9 10 11 12 13 14 15 16 17 18 19 20 21 22 23 24 25 26 27 28 29 30 31 32 33 34 35 36 37 38 39 40 41 42 43 44 45 46 47 48 49 50
709
ASUS43 KFSD 011610
RWRSD

WEATHER ROUNDUP FOR SOUTH DAKOTA
NATIONAL WEATHER SERVICE SIOUX FALLS SD
1100 AM CDT SAT OCT 01 2016

NOTE: "FAIR" INDICATES FEW OR NO CLOUDS BELOW 12,000 FEET WITH NO
SIGNIFICANT WEATHER AND/OR OBSTRUCTIONS TO VISIBILITY.


SDZ001>005-009-010-012>017-011700-
NORTHWEST AND NORTH CENTRAL SOUTH DAKOTA

CITY           SKY/WX    TMP DP  RH WIND       PRES   REMARKS
BUFFALO          N/A     68  51  54 CALM      29.93S
FAITH            N/A     67  50  54 S9        29.99S
MOBRIDGE       MOSUNNY   67  47  48 S20       30.00S
$$

SDZ012>016-024>037-041>051-057-063-072>074-011700-
SOUTHWEST AND SOUTH CENTRAL SOUTH DAKOTA

CITY           SKY/WX    TMP DP  RH WIND       PRES   REMARKS
RAPID CTY ARPT SUNNY     73  48  41 NE5       30.01S
PIERRE         CLOUDY    62  46  55 SE15      30.01S
CUSTER         SUNNY     69  46  43 NE3       30.12S
ELLSWORTH AFB  SUNNY     72  51  47 VRB2      30.00S
PHILIP         SUNNY     70  49  47 S6        29.99F
PINE RIDGE     SUNNY     67  49  52 VRB7      30.03S
WINNER         FAIR      68  48  48 S18G28    30.05S
$$

SDZ004>011-016>023-039-040-011700-
NORTHEAST SOUTH DAKOTA

CITY           SKY/WX    TMP DP  RH WIND       PRES   REMARKS
ABERDEEN       MOSUNNY   69  49  48 S16G22    30.09F
WATERTOWN      SUNNY     65  54  67 S12       30.14S
BROOKINGS      SUNNY     65  55  70 S6        30.14F
SISSETON         N/A     64  52  64 S9        30.13F
$$

SDZ017-020-022-023-036>040-048>070-011700-
SOUTHEAST SOUTH DAKOTA

CITY           SKY/WX    TMP DP  RH WIND       PRES   REMARKS
SIOUX FALLS    CLOUDY    63  56  78 E6        30.15F
HURON          MOSUNNY   66  48  52 S14       30.10F
CHAMBERLAIN    SUNNY     69  49  49 SE14      30.08S
MITCHELL       MOSUNNY   65  49  56 SE9       30.12F
YANKTON        MOSUNNY   63  54  72 CALM      30.12F
$$

ABBREVIATIONS USED IN REMARKS
   TC - TEMPERATURE IN CELSIUS
  WCI - WIND CHILL INDEX
   HX - HEAT INDEX
  VSB - VISIBILITY





USA.gov is the U.S. government's official web portal to all federal, state and local government web resources and services.